Skip Page Navigation
NASA JPL Caltech
NASA Logo - Jet Propulsion Laboratory + View the NASA Portal
+ Near-Earth Object (NEO) Program
Search JPL
JPL Home Earth Solar System Stars & Galaxies Technology
JPL Solar System Dynamics
BODIES ORBITS EPHEMERIDES TOOLS PHYSICAL DATA DISCOVERY FAQ SITE MAP
JPL Small-Body Database Browser
Search: [ help ]  
48420 (1988 RN5)
Classification: Main-belt Asteroid          SPK-ID: 2048420
Ephemeris | Orbit Diagram | Orbital Elements | Physical Parameters | Discovery Circumstances | Close-Approach Data ]

[ show orbit diagram ]
Orbital Elements at Epoch 2457000.5 (2014-Dec-09.0) TDB
Reference: JPL 6 (heliocentric ecliptic J2000)
 Element Value Uncertainty (1-sigma)   Units 
e .1617248115031918 6.3371e-08  
a 2.728962224570231 2.9692e-08 AU
q 2.28762132320228 1.7279e-07 AU
i 2.322920286121181 6.3837e-06 deg
node 246.9817449519669 0.0001632 deg
peri 110.0985275362531 0.00016451 deg
M 285.5490619934013 2.4662e-05 deg
tp 2457341.035494653716
(2015-Nov-14.53549465)
0.00011649 JED
period 1646.625030627177
4.51
2.6874e-05
7.358e-08
d
yr
n .2186290098255586 3.5681e-09 deg/d
Q 3.170303125938182 3.4494e-08 AU
  Orbit Determination Parameters
   # obs. used (total)      583  
   data-arc span      9408 days (25.76 yr)  
   first obs. used      1988-09-02  
   last obs. used      2014-06-06  
   planetary ephem.      DE431  
   SB-pert. ephem.      SB431-BIG16  
   condition code      0  
   fit RMS      .50517  
   data source      ORB  
   producer      Otto Matic  
   solution date      2014-Jun-16 14:59:03  

Additional Information
 Earth MOID = 1.28501 AU 
 T_jup = 3.335 
[ show covariance matrix ]

Ephemeris | Orbit Diagram | Orbital Elements | Physical Parameters | Discovery Circumstances | Close-Approach Data ]

Physical Parameter Table
Parameter Symbol Value Units Sigma Reference Notes
absolute magnitude H 14.6 mag n/a MPO279997  

48420 (1988 RN5)          Discovered 1988-Sep-02 by Debehogne, H. at La Silla (809)
Reference: 20021120/Numbers.arcLast Updated: 2004-04-19

[ show close-approach data ]
Ephemeris | Orbit Diagram | Orbital Elements | Physical Parameters | Discovery Circumstances | Close-Approach Data ]
ABOUT SSD CREDITS/AWARDS PRIVACY/COPYRIGHT GLOSSARY LINKS
FirstGov 2014-Sep-02 16:51 UT
(server date/time)  
NASA Home Page
Site Manager:   Donald K. Yeomans
Webmaster  Alan B. Chamberlin